Main page
Satellite images Climate Cyclones Lightning AirportsFAQ Languages Contact Newsletter About
Weather : Europe Africa North America South America Asia Australia-Oceania Others

, Nan, Nan Nakhon Airport

48331

latitude: , longitude: Thailand, elevation: 18-46N m


METAR: VTCN 200100Z VRB02KT 0300 FG VV/// 25/25 Q1010